owner,sensor,date,latitude,longitude,vertical_datum,direction_of_sea_water_velocity,sea_water_speed,upward_sea_water_velocity,qcFlag 
TABS,ioos:station:wmo:42043:1,2007-08-01T00:00:00Z,28.9818,-94.9186,2.0,5.432145653,19.43728633,-99999.0,'11111222,11111222,99999999' 
TABS,ioos:station:wmo:42043:1,2007-08-01T00:30:00Z,28.9818,-94.9186,2.0,12.56952476,16.86417801,-99999.0,'11111222,11111222,99999999' 
TABS,ioos:station:wmo:42043:1,2007-08-01T01:00:00Z,28.9818,-94.9186,2.0,33.28974178,16.26975415,-99999.0,'11111222,11111222,99999999' 
TABS,ioos:station:wmo:42043:1,2007-08-01T01:30:00Z,28.9818,-94.9186,2.0,40.0416659,9.326285434,-99999.0,'11133222,11111222,99999999' 
TABS,ioos:station:wmo:42043:1,2007-08-01T02:00:00Z,28.9818,-94.9186,2.0,45.02546851,15.97354375,-99999.0,'11111222,11111222,99999999' 
TABS,ioos:station:wmo:42043:1,2007-08-01T02:30:00Z,28.9818,-94.9186,2.0,52.96164992,14.95806471,-99999.0,'11111222,11111222,99999999' 
TABS,ioos:station:wmo:42043:1,2007-08-01T03:00:00Z,28.9818,-94.9186,2.0,51.75546072,26.50963033,-99999.0,'11111222,11111222,99999999' 
TABS,ioos:station:wmo:42043:1,2007-08-01T03:30:00Z,28.9818,-94.9186,2.0,52.90476703,26.94220852,-99999.0,'11111222,11111222,99999999' 
TABS,ioos:station:wmo:42043:1,2007-08-01T04:00:00Z,28.9818,-94.9186,2.0,53.31505107,38.43220004,-99999.0,'11111222,11111222,99999999' 
TABS,ioos:station:wmo:42043:1,2007-08-01T04:30:00Z,28.9818,-94.9186,2.0,60.95463597,42.47141745,-99999.0,'11111222,11111222,99999999' 
TABS,ioos:station:wmo:42043:1,2007-08-01T05:00:00Z,28.9818,-94.9186,2.0,64.6533671,52.79208369,-99999.0,'11111222,11111222,99999999' 
TABS,ioos:station:wmo:42043:1,2007-08-01T05:30:00Z,28.9818,-94.9186,2.0,69.63422279,56.40595093,-99999.0,'11111222,11111222,99999999' 
TABS,ioos:station:wmo:42043:1,2007-08-01T06:00:00Z,28.9818,-94.9186,2.0,68.85432622,54.36029893,-99999.0,'11111222,11111222,99999999' 
TABS,ioos:station:wmo:42043:1,2007-08-01T06:30:00Z,28.9818,-94.9186,2.0,67.00583714,55.21733242,-99999.0,'11111222,11111222,99999999' 
TABS,ioos:station:wmo:42043:1,2007-08-01T07:00:00Z,28.9818,-94.9186,2.0,67.4030048,52.15385029,-99999.0,'11111222,11111222,99999999' 
TABS,ioos:station:wmo:42043:1,2007-08-01T07:30:00Z,28.9818,-94.9186,2.0,72.79048272,57.96515678,-99999.0,'11111222,11111222,99999999' 
TABS,ioos:station:wmo:42043:1,2007-08-01T08:00:00Z,28.9818,-94.9186,2.0,69.4584197,65.12052595,-99999.0,'11111222,11111222,99999999' 
TABS,ioos:station:wmo:42043:1,2007-08-01T08:30:00Z,28.9818,-94.9186,2.0,71.97392478,65.14774056,-99999.0,'11111222,11111222,99999999' 
TABS,ioos:station:wmo:42043:1,2007-08-01T09:00:00Z,28.9818,-94.9186,2.0,71.44749792,69.33308373,-99999.0,'11111222,11111222,99999999' 
TABS,ioos:station:wmo:42043:1,2007-08-01T09:30:00Z,28.9818,-94.9186,2.0,76.08279792,68.8923929,-99999.0,'11111222,11111222,99999999' 
TABS,ioos:station:wmo:42043:1,2007-08-01T10:00:00Z,28.9818,-94.9186,2.0,83.63897133,63.72230771,-99999.0,'11111222,11111222,99999999' 
TABS,ioos:station:wmo:42043:1,2007-08-01T10:30:00Z,28.9818,-94.9186,2.0,88.59917927,61.35833766,-99999.0,'11111222,11111222,99999999' 
TABS,ioos:station:wmo:42043:1,2007-08-01T11:00:00Z,28.9818,-94.9186,2.0,95.62329215,58.78288526,-99999.0,'11111222,11111222,99999999' 
TABS,ioos:station:wmo:42043:1,2007-08-01T11:30:00Z,28.9818,-94.9186,2.0,102.0908978,52.22861763,-99999.0,'11111222,11111222,99999999' 
TABS,ioos:station:wmo:42043:1,2007-08-01T12:00:00Z,28.9818,-94.9186,2.0,104.2147794,49.80493249,-99999.0,'11111222,11111222,99999999' 
TABS,ioos:station:wmo:42043:1,2007-08-01T12:30:00Z,28.9818,-94.9186,2.0,106.4964763,49.26801904,-99999.0,'11111222,11111222,99999999' 
TABS,ioos:station:wmo:42043:1,2007-08-01T13:00:00Z,28.9818,-94.9186,2.0,104.3940321,41.55443899,-99999.0,'11111222,11111222,99999999' 
TABS,ioos:station:wmo:42043:1,2007-08-01T13:30:00Z,28.9818,-94.9186,2.0,109.2829213,30.55411102,-99999.0,'11111222,11111222,99999999' 
TABS,ioos:station:wmo:42043:1,2007-08-01T14:00:00Z,28.9818,-94.9186,2.0,113.5146365,29.75055126,-99999.0,'11111222,11111222,99999999' 
TABS,ioos:station:wmo:42043:1,2007-08-01T14:30:00Z,28.9818,-94.9186,2.0,111.1884063,27.25235036,-99999.0,'11111222,11111222,99999999' 
TABS,ioos:station:wmo:42043:1,2007-08-01T15:00:00Z,28.9818,-94.9186,2.0,123.2239062,23.5256137,-99999.0,'11111222,11111222,99999999' 
TABS,ioos:station:wmo:42043:1,2007-08-01T15:30:00Z,28.9818,-94.9186,2.0,123.0608755,25.25979612,-99999.0,'11111222,11111222,99999999' 
TABS,ioos:station:wmo:42043:1,2007-08-01T16:00:00Z,28.9818,-94.9186,2.0,122.3277224,20.53248402,-99999.0,'11111222,11111222,99999999' 
TABS,ioos:station:wmo:42043:1,2007-08-01T16:30:00Z,28.9818,-94.9186,2.0,122.321937,16.49593889,-99999.0,'11111222,11111222,99999999' 
TABS,ioos:station:wmo:42043:1,2007-08-01T17:00:00Z,28.9818,-94.9186,2.0,102.9123308,14.096457,-99999.0,'11111222,11111222,99999999' 
TABS,ioos:station:wmo:42043:1,2007-08-01T17:30:00Z,28.9818,-94.9186,2.0,108.9356966,19.53729766,-99999.0,'11111222,11111222,99999999' 
TABS,ioos:station:wmo:42043:1,2007-08-01T18:00:00Z,28.9818,-94.9186,2.0,91.30194963,9.682499677,-99999.0,'11133222,11111222,99999999' 
TABS,ioos:station:wmo:42043:1,2007-08-01T18:30:00Z,28.9818,-94.9186,2.0,91.17513049,7.801640853,-99999.0,'11133222,11111222,99999999' 
TABS,ioos:station:wmo:42043:1,2007-08-01T19:00:00Z,28.9818,-94.9186,2.0,108.1469903,9.439517996,-99999.0,'11133222,11111222,99999999' 
TABS,ioos:station:wmo:42043:1,2007-08-01T19:30:00Z,28.9818,-94.9186,2.0,110.9157183,10.81247428,-99999.0,'11111222,11111222,99999999' 
TABS,ioos:station:wmo:42043:1,2007-08-01T20:00:00Z,28.9818,-94.9186,2.0,110.4187788,9.774134233,-99999.0,'11133222,11111222,99999999' 
TABS,ioos:station:wmo:42043:1,2007-08-01T20:30:00Z,28.9818,-94.9186,2.0,129.6528257,7.208501925,-99999.0,'11133222,11111222,99999999' 
TABS,ioos:station:wmo:42043:1,2007-08-01T21:00:00Z,28.9818,-94.9186,2.0,122.7930283,8.327070313,-99999.0,'11133222,11111222,99999999' 
TABS,ioos:station:wmo:42043:1,2007-08-01T21:30:00Z,28.9818,-94.9186,2.0,146.5452933,6.747984884,-99999.0,'11133222,11111222,99999999' 
TABS,ioos:station:wmo:42043:1,2007-08-01T22:00:00Z,28.9818,-94.9186,2.0,173.1393821,6.446153892,-99999.0,'11133222,11111222,99999999' 
TABS,ioos:station:wmo:42043:1,2007-08-01T22:30:00Z,28.9818,-94.9186,2.0,194.3134071,6.51215786,-99999.0,'11133222,11111222,99999999' 
TABS,ioos:station:wmo:42043:1,2007-08-01T23:00:00Z,28.9818,-94.9186,2.0,170.0295152,3.523208765,-99999.0,'11133222,11111222,99999999' 
TABS,ioos:station:wmo:42043:1,2007-08-01T23:30:00Z,28.9818,-94.9186,2.0,203.1866638,6.45108518,-99999.0,'11133222,11111222,99999999' 
TABS,ioos:station:wmo:42043:1,2007-08-02T00:00:00Z,28.9818,-94.9186,2.0,234.711494,5.071932571,-99999.0,'11133222,11111222,99999999' 
TABS,ioos:station:wmo:42043:1,2007-08-02T00:30:00Z,28.9818,-94.9186,2.0,224.9996843,6.109402589,-99999.0,'11133222,11111222,99999999' 
TABS,ioos:station:wmo:42043:1,2007-08-02T01:00:00Z,28.9818,-94.9186,2.0,235.7271223,3.001083138,-99999.0,'11133222,11111222,99999999' 
TABS,ioos:station:wmo:42043:1,2007-08-02T01:30:00Z,28.9818,-94.9186,2.0,321.5675173,3.153173005,-99999.0,'11133222,11111222,99999999' 
TABS,ioos:station:wmo:42043:1,2007-08-02T02:00:00Z,28.9818,-94.9186,2.0,320.3254899,6.171393684,-99999.0,'11133222,11111222,99999999' 
TABS,ioos:station:wmo:42043:1,2007-08-02T02:30:00Z,28.9818,-94.9186,2.0,337.104055,6.220072347,-99999.0,'11133222,11111222,99999999' 
TABS,ioos:station:wmo:42043:1,2007-08-02T03:00:00Z,28.9818,-94.9186,2.0,355.2935176,5.849726489,-99999.0,'11133222,11111222,99999999' 
TABS,ioos:station:wmo:42043:1,2007-08-02T03:30:00Z,28.9818,-94.9186,2.0,20.1417441,10.1933802,-99999.0,'11111222,11111222,99999999' 
TABS,ioos:station:wmo:42043:1,2007-08-02T04:00:00Z,28.9818,-94.9186,2.0,17.51794005,11.06306467,-99999.0,'11111222,11111222,99999999' 
TABS,ioos:station:wmo:42043:1,2007-08-02T04:30:00Z,28.9818,-94.9186,2.0,26.16478068,14.71815885,-99999.0,'11111222,11111222,99999999' 
TABS,ioos:station:wmo:42043:1,2007-08-02T05:00:00Z,28.9818,-94.9186,2.0,39.57340073,21.15954867,-99999.0,'11111222,11111222,99999999' 
TABS,ioos:station:wmo:42043:1,2007-08-02T05:30:00Z,28.9818,-94.9186,2.0,40.89965585,29.17211854,-99999.0,'11111222,11111222,99999999' 
TABS,ioos:station:wmo:42043:1,2007-08-02T06:00:00Z,28.9818,-94.9186,2.0,36.88755958,32.67000153,-99999.0,'11111222,11111222,99999999' 
TABS,ioos:station:wmo:42043:1,2007-08-02T06:30:00Z,28.9818,-94.9186,2.0,37.95940511,33.9781415,-99999.0,'11111222,11111222,99999999' 
TABS,ioos:station:wmo:42043:1,2007-08-02T07:00:00Z,28.9818,-94.9186,2.0,39.37135683,35.4697956,-99999.0,'11111222,11111222,99999999' 
TABS,ioos:station:wmo:42043:1,2007-08-02T07:30:00Z,28.9818,-94.9186,2.0,44.09432069,39.36248214,-99999.0,'11111222,11111222,99999999' 
TABS,ioos:station:wmo:42043:1,2007-08-02T08:00:00Z,28.9818,-94.9186,2.0,52.08461146,38.47040551,-99999.0,'11111222,11111222,99999999' 
TABS,ioos:station:wmo:42043:1,2007-08-02T08:30:00Z,28.9818,-94.9186,2.0,55.21032131,39.45199741,-99999.0,'11111222,11111222,99999999' 
TABS,ioos:station:wmo:42043:1,2007-08-02T09:00:00Z,28.9818,-94.9186,2.0,69.55707559,58.12040606,-99999.0,'11111222,11111222,99999999' 
TABS,ioos:station:wmo:42043:1,2007-08-02T09:30:00Z,28.9818,-94.9186,2.0,71.88132394,44.1176076,-99999.0,'11111222,11111222,99999999' 
TABS,ioos:station:wmo:42043:1,2007-08-02T10:00:00Z,28.9818,-94.9186,2.0,66.76519122,35.25972348,-99999.0,'11111222,11111222,99999999' 
TABS,ioos:station:wmo:42043:1,2007-08-02T10:30:00Z,28.9818,-94.9186,2.0,72.29846712,30.38881538,-99999.0,'11111222,11111222,99999999' 
TABS,ioos:station:wmo:42043:1,2007-08-02T11:00:00Z,28.9818,-94.9186,2.0,87.04113131,33.51468037,-99999.0,'11111222,11111222,99999999' 
TABS,ioos:station:wmo:42043:1,2007-08-02T11:30:00Z,28.9818,-94.9186,2.0,36.31146349,9.642458193,-99999.0,'11133222,11111222,99999999' 
TABS,ioos:station:wmo:42043:1,2007-08-02T12:00:00Z,28.9818,-94.9186,2.0,71.51613761,11.10276092,-99999.0,'11111222,11111222,99999999' 
TABS,ioos:station:wmo:42043:1,2007-08-02T12:30:00Z,28.9818,-94.9186,2.0,58.81377035,9.713753137,-99999.0,'11133222,11111222,99999999' 
TABS,ioos:station:wmo:42043:1,2007-08-02T13:00:00Z,28.9818,-94.9186,2.0,81.73386314,9.528997849,-99999.0,'11133222,11111222,99999999' 
TABS,ioos:station:wmo:42043:1,2007-08-02T13:30:00Z,28.9818,-94.9186,2.0,94.33980953,12.68637458,-99999.0,'11111222,11111222,99999999' 
TABS,ioos:station:wmo:42043:1,2007-08-02T14:00:00Z,28.9818,-94.9186,2.0,123.506557,14.72736568,-99999.0,'11111222,11111222,99999999' 
TABS,ioos:station:wmo:42043:1,2007-08-02T14:30:00Z,28.9818,-94.9186,2.0,120.7918446,18.87007419,-99999.0,'11111222,11111222,99999999' 
TABS,ioos:station:wmo:42043:1,2007-08-02T15:00:00Z,28.9818,-94.9186,2.0,131.9560882,17.84426519,-99999.0,'11111222,11111222,99999999' 
TABS,ioos:station:wmo:42043:1,2007-08-02T15:30:00Z,28.9818,-94.9186,2.0,127.7518301,8.575016035,-99999.0,'11133222,11111222,99999999' 
TABS,ioos:station:wmo:42043:1,2007-08-02T16:00:00Z,28.9818,-94.9186,2.0,129.9605927,7.567007334,-99999.0,'11133222,11111222,99999999' 
TABS,ioos:station:wmo:42043:1,2007-08-02T16:30:00Z,28.9818,-94.9186,2.0,138.7600515,10.99797254,-99999.0,'11111222,11111222,99999999' 
TABS,ioos:station:wmo:42043:1,2007-08-02T17:00:00Z,28.9818,-94.9186,2.0,142.2552386,13.49357254,-99999.0,'11111222,11111222,99999999' 
TABS,ioos:station:wmo:42043:1,2007-08-02T17:30:00Z,28.9818,-94.9186,2.0,150.5302701,20.65202169,-99999.0,'11111222,11111222,99999999' 
TABS,ioos:station:wmo:42043:1,2007-08-02T18:00:00Z,28.9818,-94.9186,2.0,144.3974878,13.38127423,-99999.0,'11111222,11111222,99999999' 
TABS,ioos:station:wmo:42043:1,2007-08-02T18:30:00Z,28.9818,-94.9186,2.0,143.0856562,18.09800541,-99999.0,'11111222,11111222,99999999' 
TABS,ioos:station:wmo:42043:1,2007-08-02T19:00:00Z,28.9818,-94.9186,2.0,136.2431777,12.70970102,-99999.0,'11111222,11111222,99999999' 
TABS,ioos:station:wmo:42043:1,2007-08-02T19:30:00Z,28.9818,-94.9186,2.0,143.5902427,6.722216896,-99999.0,'11133222,11111222,99999999' 
TABS,ioos:station:wmo:42043:1,2007-08-02T20:00:00Z,28.9818,-94.9186,2.0,105.1239719,3.449478221,-99999.0,'11133222,11111222,99999999' 
TABS,ioos:station:wmo:42043:1,2007-08-02T20:30:00Z,28.9818,-94.9186,2.0,26.91214123,5.169883945,-99999.0,'11133222,11111222,99999999' 
TABS,ioos:station:wmo:42043:1,2007-08-02T21:00:00Z,28.9818,-94.9186,2.0,61.92757871,6.8,-99999.0,'11133222,11111222,99999999' 
TABS,ioos:station:wmo:42043:1,2007-08-02T21:30:00Z,28.9818,-94.9186,2.0,28.68049297,6.542721146,-99999.0,'11133222,11111222,99999999' 
TABS,ioos:station:wmo:42043:1,2007-08-02T22:00:00Z,28.9818,-94.9186,2.0,11.98769437,5.970192627,-99999.0,'11133222,11111222,99999999' 
TABS,ioos:station:wmo:42043:1,2007-08-02T22:30:00Z,28.9818,-94.9186,2.0,12.43393493,8.499347034,-99999.0,'11133222,11111222,99999999' 
TABS,ioos:station:wmo:42043:1,2007-08-02T23:00:00Z,28.9818,-94.9186,2.0,346.107369,10.66189946,-99999.0,'11111222,11111222,99999999' 
TABS,ioos:station:wmo:42043:1,2007-08-02T23:30:00Z,28.9818,-94.9186,2.0,346.7115874,8.178997494,-99999.0,'11133222,11111222,99999999' 
TABS,ioos:station:wmo:42043:1,2007-08-03T00:00:00Z,28.9818,-94.9186,2.0,320.2887881,9.359508534,-99999.0,'11133222,11111222,99999999' 
TABS,ioos:station:wmo:42043:1,2007-08-03T00:30:00Z,28.9818,-94.9186,2.0,310.0869799,8.090747802,-99999.0,'11133222,11111222,99999999' 
TABS,ioos:station:wmo:42043:1,2007-08-03T01:00:00Z,28.9818,-94.9186,2.0,323.4807502,9.158171215,-99999.0,'11133222,11111222,99999999' 
TABS,ioos:station:wmo:42043:1,2007-08-03T01:30:00Z,28.9818,-94.9186,2.0,333.4169044,13.98884198,-99999.0,'11111222,11111222,99999999' 
TABS,ioos:station:wmo:42043:1,2007-08-03T02:00:00Z,28.9818,-94.9186,2.0,326.1387324,17.60626309,-99999.0,'11111222,11111222,99999999' 
TABS,ioos:station:wmo:42043:1,2007-08-03T02:30:00Z,28.9818,-94.9186,2.0,321.3058699,18.09117188,-99999.0,'11111222,11111222,99999999' 
TABS,ioos:station:wmo:42043:1,2007-08-03T03:00:00Z,28.9818,-94.9186,2.0,330.305771,12.69744069,-99999.0,'11111222,11111222,99999999' 
TABS,ioos:station:wmo:42043:1,2007-08-03T03:30:00Z,28.9818,-94.9186,2.0,333.00645,19.12338882,-99999.0,'11111222,11111222,99999999' 
TABS,ioos:station:wmo:42043:1,2007-08-03T04:00:00Z,28.9818,-94.9186,2.0,335.5590042,17.61890178,-99999.0,'11111222,11111222,99999999' 
TABS,ioos:station:wmo:42043:1,2007-08-03T04:30:00Z,28.9818,-94.9186,2.0,346.9968195,19.51031009,-99999.0,'11111222,11111222,99999999' 
TABS,ioos:station:wmo:42043:1,2007-08-03T05:00:00Z,28.9818,-94.9186,2.0,348.4790772,21.27874526,-99999.0,'11111222,11111222,99999999' 
TABS,ioos:station:wmo:42043:1,2007-08-03T05:30:00Z,28.9818,-94.9186,2.0,354.2813573,20.67289288,-99999.0,'11111222,11111222,99999999' 
TABS,ioos:station:wmo:42043:1,2007-08-03T06:00:00Z,28.9818,-94.9186,2.0,358.8849896,23.63447694,-99999.0,'11111222,11111222,99999999' 
TABS,ioos:station:wmo:42043:1,2007-08-03T06:30:00Z,28.9818,-94.9186,2.0,0.934422737,24.5332611,-99999.0,'11111222,11111222,99999999' 
TABS,ioos:station:wmo:42043:1,2007-08-03T07:00:00Z,28.9818,-94.9186,2.0,1.467794387,24.20794085,-99999.0,'11111222,11111222,99999999' 
TABS,ioos:station:wmo:42043:1,2007-08-03T07:30:00Z,28.9818,-94.9186,2.0,3.870910194,23.55372794,-99999.0,'11111222,11111222,99999999' 
TABS,ioos:station:wmo:42043:1,2007-08-03T08:00:00Z,28.9818,-94.9186,2.0,8.391354973,21.10594229,-99999.0,'11111222,11111222,99999999' 
TABS,ioos:station:wmo:42043:1,2007-08-03T08:30:00Z,28.9818,-94.9186,2.0,28.25018753,24.48658817,-99999.0,'11111222,11111222,99999999' 
TABS,ioos:station:wmo:42043:1,2007-08-03T09:00:00Z,28.9818,-94.9186,2.0,22.41698331,19.53627651,-99999.0,'11111222,11111222,99999999' 
TABS,ioos:station:wmo:42043:1,2007-08-03T09:30:00Z,28.9818,-94.9186,2.0,39.8655898,22.04412167,-99999.0,'11111222,11111222,99999999' 
TABS,ioos:station:wmo:42043:1,2007-08-03T10:00:00Z,28.9818,-94.9186,2.0,51.96854175,22.7886836,-99999.0,'11111222,11111222,99999999' 
TABS,ioos:station:wmo:42043:1,2007-08-03T10:30:00Z,28.9818,-94.9186,2.0,53.82536834,18.2973468,-99999.0,'11111222,11111222,99999999' 
TABS,ioos:station:wmo:42043:1,2007-08-03T11:00:00Z,28.9818,-94.9186,2.0,66.61045966,12.99809601,-99999.0,'11111222,11111222,99999999' 
TABS,ioos:station:wmo:42043:1,2007-08-03T11:30:00Z,28.9818,-94.9186,2.0,83.99274212,17.29497326,-99999.0,'11111222,11111222,99999999' 
TABS,ioos:station:wmo:42043:1,2007-08-03T12:00:00Z,28.9818,-94.9186,2.0,98.46569643,22.21201927,-99999.0,'11111222,11111222,99999999' 
TABS,ioos:station:wmo:42043:1,2007-08-03T12:30:00Z,28.9818,-94.9186,2.0,109.7725725,26.27936453,-99999.0,'11111222,11111222,99999999' 
TABS,ioos:station:wmo:42043:1,2007-08-03T13:00:00Z,28.9818,-94.9186,2.0,114.8063261,24.33541041,-99999.0,'11111222,11111222,99999999' 
TABS,ioos:station:wmo:42043:1,2007-08-03T13:30:00Z,28.9818,-94.9186,2.0,127.6756524,26.73464419,-99999.0,'11111222,11111222,99999999' 
TABS,ioos:station:wmo:42043:1,2007-08-03T14:00:00Z,28.9818,-94.9186,2.0,138.5649206,26.83713845,-99999.0,'11111222,11111222,99999999' 
TABS,ioos:station:wmo:42043:1,2007-08-03T14:30:00Z,28.9818,-94.9186,2.0,158.4582413,22.52321913,-99999.0,'11111222,11111222,99999999' 
TABS,ioos:station:wmo:42043:1,2007-08-03T15:00:00Z,28.9818,-94.9186,2.0,157.2108632,19.28546862,-99999.0,'11111222,11111222,99999999' 
TABS,ioos:station:wmo:42043:1,2007-08-03T15:30:00Z,28.9818,-94.9186,2.0,173.6213207,23.13320125,-99999.0,'11111222,11111222,99999999' 
TABS,ioos:station:wmo:42043:1,2007-08-03T16:00:00Z,28.9818,-94.9186,2.0,183.1680728,24.78788817,-99999.0,'11111222,11111222,99999999' 
TABS,ioos:station:wmo:42043:1,2007-08-03T16:30:00Z,28.9818,-94.9186,2.0,181.8082529,22.18104822,-99999.0,'11111222,11111222,99999999' 
TABS,ioos:station:wmo:42043:1,2007-08-03T17:00:00Z,28.9818,-94.9186,2.0,186.6269525,19.84258552,-99999.0,'11111222,11111222,99999999' 
TABS,ioos:station:wmo:42043:1,2007-08-03T17:30:00Z,28.9818,-94.9186,2.0,180.7849592,22.62212413,-99999.0,'11111222,11111222,99999999' 
TABS,ioos:station:wmo:42043:1,2007-08-03T18:00:00Z,28.9818,-94.9186,2.0,188.7044919,23.1263832,-99999.0,'11111222,11111222,99999999' 
TABS,ioos:station:wmo:42043:1,2007-08-03T18:30:00Z,28.9818,-94.9186,2.0,191.4204167,21.3119802,-99999.0,'11111222,11111222,99999999' 
TABS,ioos:station:wmo:42043:1,2007-08-03T19:00:00Z,28.9818,-94.9186,2.0,201.676625,21.3605852,-99999.0,'11111222,11111222,99999999' 
TABS,ioos:station:wmo:42043:1,2007-08-03T19:30:00Z,28.9818,-94.9186,2.0,205.4992986,19.72105727,-99999.0,'11111222,11111222,99999999' 
TABS,ioos:station:wmo:42043:1,2007-08-03T20:00:00Z,28.9818,-94.9186,2.0,216.9711989,20.30203192,-99999.0,'11111222,11111222,99999999' 
TABS,ioos:station:wmo:42043:1,2007-08-03T20:30:00Z,28.9818,-94.9186,2.0,220.2147146,15.76686399,-99999.0,'11111222,11111222,99999999' 
TABS,ioos:station:wmo:42043:1,2007-08-03T21:00:00Z,28.9818,-94.9186,2.0,233.6344625,15.21259018,-99999.0,'11111222,11111222,99999999' 
TABS,ioos:station:wmo:42043:1,2007-08-03T21:30:00Z,28.9818,-94.9186,2.0,232.6699135,13.45643341,-99999.0,'11111222,11111222,99999999' 
TABS,ioos:station:wmo:42043:1,2007-08-03T22:00:00Z,28.9818,-94.9186,2.0,227.1472647,10.18949459,-99999.0,'11111222,11111222,99999999' 
TABS,ioos:station:wmo:42043:1,2007-08-03T22:30:00Z,28.9818,-94.9186,2.0,238.8198342,10.0052986,-99999.0,'11111222,11111222,99999999' 
TABS,ioos:station:wmo:42043:1,2007-08-03T23:00:00Z,28.9818,-94.9186,2.0,250.8108268,12.01769529,-99999.0,'11111222,11111222,99999999' 
TABS,ioos:station:wmo:42043:1,2007-08-03T23:30:00Z,28.9818,-94.9186,2.0,248.1630429,12.09805356,-99999.0,'11111222,11111222,99999999' 
TABS,ioos:station:wmo:42043:1,2007-08-04T00:00:00Z,28.9818,-94.9186,2.0,268.6705585,12.50336355,-99999.0,'11111222,11111222,99999999' 
TABS,ioos:station:wmo:42043:1,2007-08-04T00:30:00Z,28.9818,-94.9186,2.0,277.6235845,13.26725669,-99999.0,'11111222,11111222,99999999' 
TABS,ioos:station:wmo:42043:1,2007-08-04T01:00:00Z,28.9818,-94.9186,2.0,272.7360162,11.73337121,-99999.0,'11111222,11111222,99999999' 
TABS,ioos:station:wmo:42043:1,2007-08-04T01:30:00Z,28.9818,-94.9186,2.0,286.2489283,13.75960028,-99999.0,'11111222,11111222,99999999' 
TABS,ioos:station:wmo:42043:1,2007-08-04T02:00:00Z,28.9818,-94.9186,2.0,288.2682844,14.10065601,-99999.0,'11111222,11111222,99999999' 
TABS,ioos:station:wmo:42043:1,2007-08-04T02:30:00Z,28.9818,-94.9186,2.0,300.4109798,23.8051129,-99999.0,'11111222,11111222,99999999' 
TABS,ioos:station:wmo:42043:1,2007-08-04T03:00:00Z,28.9818,-94.9186,2.0,305.9072586,34.27284056,-99999.0,'11111222,11111222,99999999' 
TABS,ioos:station:wmo:42043:1,2007-08-04T03:30:00Z,28.9818,-94.9186,2.0,318.385552,32.93085635,-99999.0,'11111222,11111222,99999999' 
TABS,ioos:station:wmo:42043:1,2007-08-04T04:00:00Z,28.9818,-94.9186,2.0,326.8744069,30.13832278,-99999.0,'11111222,11111222,99999999' 
TABS,ioos:station:wmo:42043:1,2007-08-04T04:30:00Z,28.9818,-94.9186,2.0,337.2446953,25.98238057,-99999.0,'11111222,11111222,99999999' 
TABS,ioos:station:wmo:42043:1,2007-08-04T05:00:00Z,28.9818,-94.9186,2.0,344.7238867,21.292339,-99999.0,'11111222,11111222,99999999' 
TABS,ioos:station:wmo:42043:1,2007-08-04T05:30:00Z,28.9818,-94.9186,2.0,354.6120598,18.74281729,-99999.0,'11111222,11111222,99999999' 
TABS,ioos:station:wmo:42043:1,2007-08-04T06:00:00Z,28.9818,-94.9186,2.0,1.257072633,17.32416809,-99999.0,'11111222,11111222,99999999' 
TABS,ioos:station:wmo:42043:1,2007-08-04T06:30:00Z,28.9818,-94.9186,2.0,8.504317122,11.69862385,-99999.0,'11111222,11111222,99999999' 
TABS,ioos:station:wmo:42043:1,2007-08-04T07:00:00Z,28.9818,-94.9186,2.0,355.6497625,10.0188672,-99999.0,'11111222,11111222,99999999' 
TABS,ioos:station:wmo:42043:1,2007-08-04T07:30:00Z,28.9818,-94.9186,2.0,352.0663443,12.38858345,-99999.0,'11111222,11111222,99999999' 
TABS,ioos:station:wmo:42043:1,2007-08-04T08:00:00Z,28.9818,-94.9186,2.0,0.707528173,11.34086416,-99999.0,'11111222,11111222,99999999' 
TABS,ioos:station:wmo:42043:1,2007-08-04T08:30:00Z,28.9818,-94.9186,2.0,31.14175189,7.734623456,-99999.0,'11133222,11111222,99999999' 
TABS,ioos:station:wmo:42043:1,2007-08-04T09:00:00Z,28.9818,-94.9186,2.0,46.02085505,6.350826718,-99999.0,'11133222,11111222,99999999' 
TABS,ioos:station:wmo:42043:1,2007-08-04T09:30:00Z,28.9818,-94.9186,2.0,72.16121244,13.67759116,-99999.0,'11111222,11111222,99999999' 
TABS,ioos:station:wmo:42043:1,2007-08-04T10:00:00Z,28.9818,-94.9186,2.0,84.56298009,16.46407301,-99999.0,'11111222,11111222,99999999' 
TABS,ioos:station:wmo:42043:1,2007-08-04T10:30:00Z,28.9818,-94.9186,2.0,97.09961394,13.99732117,-99999.0,'11111222,11111222,99999999' 
TABS,ioos:station:wmo:42043:1,2007-08-04T11:00:00Z,28.9818,-94.9186,2.0,115.369843,16.08082709,-99999.0,'11111222,11111222,99999999' 
TABS,ioos:station:wmo:42043:1,2007-08-04T11:30:00Z,28.9818,-94.9186,2.0,114.8770008,11.38652713,-99999.0,'11111222,11111222,99999999' 
TABS,ioos:station:wmo:42043:1,2007-08-04T12:00:00Z,28.9818,-94.9186,2.0,131.6903726,14.20825816,-99999.0,'11111222,11111222,99999999' 
TABS,ioos:station:wmo:42043:1,2007-08-04T12:30:00Z,28.9818,-94.9186,2.0,132.6609872,15.42070362,-99999.0,'11111222,11111222,99999999' 
TABS,ioos:station:wmo:42043:1,2007-08-04T13:30:00Z,28.9818,-94.9186,2.0,153.6801108,16.71252524,-99999.0,'11111222,11111222,99999999' 
TABS,ioos:station:wmo:42043:1,2007-08-04T14:00:00Z,28.9818,-94.9186,2.0,157.0573787,23.49883401,-99999.0,'11111222,11111222,99999999' 
TABS,ioos:station:wmo:42043:1,2007-08-04T14:30:00Z,28.9818,-94.9186,2.0,174.199179,25.32969798,-99999.0,'11111222,11111222,99999999' 
TABS,ioos:station:wmo:42043:1,2007-08-04T15:00:00Z,28.9818,-94.9186,2.0,172.152062,28.1233924,-99999.0,'11111222,11111222,99999999' 
TABS,ioos:station:wmo:42043:1,2007-08-04T15:30:00Z,28.9818,-94.9186,2.0,189.5134813,31.1585526,-99999.0,'11111222,11111222,99999999' 
TABS,ioos:station:wmo:42043:1,2007-08-04T16:00:00Z,28.9818,-94.9186,2.0,184.7607785,36.02429874,-99999.0,'11111222,11111222,99999999' 
TABS,ioos:station:wmo:42043:1,2007-08-04T16:30:00Z,28.9818,-94.9186,2.0,197.7511792,35.52123027,-99999.0,'11111222,11111222,99999999' 